Terminal Aerodrome Forecast
Issued by NWS Billings, MT

Home | Current Version | Previous Version | Text Only | Print | Product List | Glossary On
Versions: 1 2 3 4 5 6 7 8 9 10 11 12 13 14 15 16 17 18 19 20 21 22 23 24 25 26 27 28 29 30 31 32 33 34 35 36 37 38 39 40 41 42 43 44 45 46 47 48 49 50
000
FTUS45 KBYZ 011120
TAFBIL
TAF
KBIL 011120Z 0112/0212 29009KT P6SM VCSH SCT050 BKN090
     FM011500 32015G21KT P6SM VCSH BKN070 BKN100
     FM020100 24006KT P6SM SKC=

USA.gov is the U.S. government's official web portal to all federal, state and local government web resources and services.